CAPE
0 0 0 16 57 134 182 221 283 369 420 497 581 675 791 992 1031 1053 1041 1048 1178 1157 1332 1534 1631 1639 1692 1666 1602 1560 1468 1341 1288 1297 1394 1263 1254 1384 1591 1757 1868 1922 2027 2135 2157 2127 2303 2440 2505 2462 2480 2542 2622 2527 2550 2554 2714 2962 2850 2867 2615 3102 2640
0 0 0 11 58 148 197 248 277 378 436 502 560 653 814 1018 1089 1135 1125 1101 1136 1215 1426 1594 1803 1654 1668 1725 1732 1670 1602 1493 1527 1875 1554 1583 1798 1462 1530 1599 1723 1800 1858 1939 1971 1953 2258 2356 2411 2408 2370 2517 2664 2396 2361 2440 2584 2543 2650 2720 2988 3006 3129
0 0 0 9 52 154 210 256 351 398 470 534 584 636 830 1055 1111 1175 1224 1221 1182 1230 1507 1631 1912 1756 1712 1730 1799 1835 1771 1612 1552 1793 1658 1575 1679 1620 1573 1534 1550 1625 1681 1751 1815 1885 2258 2236 2342 2347 2346 2336 2320 2366 2423 2444 2592 2640 2609 2804 3358 3559 3273
0 0 0 10 53 135 268 277 356 420 496 588 630 669 817 1092 1162 1160 1230 1294 1278 1323 1544 1670 1905 1893 1801 1782 1772 1903 1962 1915 1780 1762 1727 1560 1642 1833 1786 1653 1646 1693 1748 1756 1898 2042 2154 2204 2288 2294 2978 2280 2257 2243 2388 2554 2621 2736 2732 2824 3140 3252 3308
10 0 1 1 20 92 251 335 396 439 512 629 676 760 815 1053 1212 1206 1236 1319 1336 1401 1522 1705 1942 2018 1903 1799 1773 1819 2094 2077 2038 1976 1867 1745 1712 1945 1925 1919 1796 1826 1821 1807 1970 2413 2337 2206 2103 2206 2245 2365 2254 2218 2323 2468 2554 2716 2737 2821 2977 2906 2998
20 2 0 2 15 71 214 324 389 437 515 639 718 752 817 1030 1228 1283 1287 1454 1423 1444 1478 1664 1884 2155 1995 1912 1855 1888 2051 2195 2204 2140 1942 1826 1789 1956 1966 2049 2037 1953 1866 1849 2104 2293 2369 2310 2132 2070 2104 2145 2155 2158 2164 2397 2518 2558 2648 2672 2830 2780 2846
12 21 5 8 18 55 182 297 367 427 490 628 730 774 847 1004 1240 1327 1342 1400 1554 1504 1521 1634 1825 2043 2054 1980 1966 2036 2026 2229 2316 2285 2155 1947 1815 1960 1964 1973 2347 2066 2023 1993 1993 2145 2247 2372 2406 2224 2137 2068 2226 2121 2192 2298 2435 2445 2525 2463 2651 2624 2670
19 52 20 19 31 54 116 260 330 398 464 569 712 786 833 949 1167 1309 1370 1410 1509 1521 1558 1608 1707 1922 2029 2024 2027 2014 2111 2254 2355 2449 2317 2162 1980 2072 1959 1886 2132 2130 2120 2086 2098 2127 2172 2238 2318 2454 2328 2220 2141 2152 2140 2244 2295 2249 2357 2398 2402 2528 2586
75 105 77 55 48 64 94 210 295 355 427 504 661 782 859 931 1091 1234 1343 1409 1488 1544 1572 1587 1638 1783 1953 2022 2035 2056 2195 2298 2427 2436 2441 2353 2189 2077 2075 1978 1976 2012 2020 2054 2107 2209 2252 2236 2196 2320 2432 2441 2427 2304 2275 2293 2264 2248 2333 2366 2363 2421 2521
117 142 148 90 76 85 103 106 238 305 376 444 582 746 842 937 1044 1153 1262 1348 1445 1522 1547 1567 1570 1653 1834 1959 1998 2032 2214 2349 2420 2416 2477 2505 2415 2248 2032 2084 2024 2127 2012 1997 2019 2087 2190 2198 2193 2256 2369 2446 2523 2373 2333 2262 2308 2333 2302 2372 2371 2398 2489
33 118 171 171 168 161 131 122 129 268 333 383 499 679 835 936 1024 1115 1190 1268 1373 1470 1499 1538 1546 1568 1700 1838 1913 1955 2082 2321 2380 2413 2470 2509 2506 2463 2303 2126 2114 2148 2188 2180 2134 2030 1884 2066 2056 2156 2285 2343 2442 2450 2338 2314 2354 2380 2346 2344 2414 2442 2468
109 153 150 173 176 182 186 189 185 213 294 342 443 621 799 928 1017 1095 1152 1214 1290 1390 1432 1478 1529 1542 1613 1711 1784 1827 1883 2113 2295 2375 2421 2461 2470 2454 2417 2340 2261 2243 2273 2194 2055 1964 1877 1884 1846 2025 2137 2304 2390 2428 2446 2422 2386 2412 2459 2407 2443 2485 2530
383 294 282 240 168 178 162 179 193 212 227 242 405 566 760 901 1003 1076 1139 1178 1232 1300 1357 1412 1497 1515 1550 1604 1644 1682 1724 1813 2084 2238 2302 2342 2368 2361 2341 2302 2263 2256 2239 2218 2103 2042 1950 1989 1996 2033 2057 2134 2267 2287 2356 2353 2288 2342 2381 2425 2448 2486 2549
870 539 423 372 307 222 130 204 225 239 216 238 350 515 721 871 980 1072 1127 1177 1209 1270 1297 1362 1457 1477 1503 1539 1568 1563 1560 1608 1780 2012 2130 2209 2283 2319 2325 2244 2128 2106 2130 2118 2075 2079 2014 1907 1942 1979 1941 1949 2071 2281 2328 2278 2217 2226 2264 2298 2324 2331 2444
721 616 500 433 398 366 248 235 228 274 296 298 293 471 689 848 972 1058 1128 1186 1266 1351 1384 1421 1390 1414 1439 1458 1506 1526 1504 1516 1574 1707 1898 2188 2201 2291 2272 2166 1962 1961 2054 2122 2094 2054 1969 1830 1795 1776 1748 1747 1900 2108 2209 2186 2169 2186 2211 2229 2285 2249 2303
786 670 624 542 501 471 394 299 259 245 243 309 337 421 658 839 985 1088 1162 1218 1291 1397 1462 1445 1394 1349 1353 1363 1395 1441 1480 1502 1541 1598 1714 1900 2067 2158 2196 2150 2095 2090 2126 2147 2097 1935 1728 1572 1508 1480 1560 1680 1725 1786 1878 2053 2131 2352 2728 2779 2508 2281 2214
721 676 635 557 517 550 444 369 290 240 231 246 266 390 630 840 980 1097 1172 1226 1317 1442 1504 1510 1476 1407 1364 1346 1327 1330 1384 1454 1523 1576 1655 1779 1898 2015 2068 2099 2155 2184 2161 2121 2099 1975 1840 1626 1485 1375 1422 1450 1664 1709 1660 1787 1854 2276 1973 2144 2388 2942 2331
892 770 697 665 614 554 481 389 323 324 341 341 364 434 601 806 994 1127 1231 1248 1330 1477 1591 1644 1658 1583 1498 1427 1372 1327 1310 1354 1404 1485 1574 1648 1768 1861 1897 1930 1939 1946 1957 1947 1882 1770 1604 1511 1487 1447 1498 1517 1511 1562 1681 1733 1678 1700 1763 1842 1918 2733 3132
848 924 928 888 766 596 510 440 342 452 501 502 498 497 583 711 891 1076 1216 1248 1308 1414 1603 1693 1741 1746 1710 1635 1542 1480 1421 1386 1375 1375 1381 1404 1449 1555 1651 1662 1588 1632 1619 1540 1480 1439 1405 1403 1420 1331 1400 1428 1438 1474 1547 1672 1352 1568 1633 1746 1886 1977 2481
838 714 632 656 669 664 610 504 291 260 238 400 523 602 615 661 742 892 1075 1196 1288 1410 1552 1628 1645 1652 1734 1793 1789 1718 1660 1614 1579 1590 1578 1527 1485 1474 1434 1383 1432 1506 1522 1443 1357 1319 1260 1073 1103 1069 1097 1242 1328 1418 1468 1583 1478 1519 1537 1597 1730 1903 2010
894 842 770 680 619 555 451 321 368 182 184 179 190 405 663 727 722 761 863 993 1166 1311 1433 1519 1582 1598 1567 1657 1717 1722 1765 1638 1644 1632 1648 1633 1658 1652 1482 1306 1278 1308 1372 1372 1324 1259 1139 1020 950 897 901 963 1122 1256 1336 1362 1361 1382 1484 1575 1631 1685 1727
827 821 842 793 689 588 562 467 352 315 220 244 158 195 209 429 638 734 762 788 848 991 1145 1250 1395 1471 1216 1312 1331 1174 878 710 1022 1256 1522 1514 1512 1536 1453 1222 1156 1223 1246 1161 1069 929 916 925 832 804 768 799 905 1016 1109 1185 1220 1255 1287 1385 1481 1577 1636
725 760 762 756 686 667 562 562 611 655 614 543 484 402 425 486 522 525 551 704 864 934 996 1058 1128 1109 962 940 935 1057 1076 908 754 700 973 1394 1394 1353 1329 1219 1212 1240 1125 1095 1043 1037 1062 1012 949 848 801 807 837 886 961 1037 1102 1170 1198 1196 1156 1237 1344
655 690 662 661 598 620 699 721 658 646 764 786 686 701 690 644 513 468 507 616 663 677 745 926 822 928 742 548 719 818 886 770 576 575 772 780 1175 1260 1278 1127 875 1046 1294 1260 1190 1206 1145 1080 977 893 833 854 876 872 912 941 984 1058 1093 1106 1077 1024 974
313 465 528 553 503 493 496 481 534 616 766 796 828 795 703 575 517 446 519 592 644 756 765 629 348 340 461 491 558 720 712 753 799 751 607 760 809 1077 1097 1086 884 802 784 729 1129 1327 1340 1214 1098 987 894 820 786 791 804 825 841 865 894 894 842 756 658
298 349 485 543 484 477 497 465 524 667 695 597 679 747 748 683 600 681 693 737 626 721 736 717 566 962 1314 946 755 810 885 882 839 816 730 1085 1437 1364 1271 1212 1067 807 686 886 993 1082 1251 1564 1442 1261 1091 956 832 798 730 678 664 646 618 568 516 462 436
259 285 401 586 521 544 498 387 355 593 737 791 764 768 651 611 735 780 721 648 609 582 640 677 759 745 827 982 852 763 749 687 737 885 1099 1241 1452 1463 1329 1205 1073 995 817 686 723 952 1200 1494 1687 1626 1507 1425 1259 1077 1016 931 861 729 614 531 482 586 680
252 288 304 361 465 512 464 417 363 361 440 333 436 540 631 702 724 496 327 378 430 492 606 855 1075 1169 1209 1252 1052 920 863 768 833 988 949 978 997 1046 1063 1097 1145 1120 1019 766 641 644 875 1045 1218 1250 1049 1089 1287 1282 1166 986 1049 1118 1059 975 963 983 989
215 215 272 301 367 412 438 396 414 392 390 356 422 471 424 325 567 759 762 849 780 754 891 1017 953 878 840 808 785 685 614 608 713 777 858 901 911 818 702 643 703 864 1045 1215 789 659 558 750 870 787 628 641 634 706 770 746 855 935 1048 1119 1071 949 800
203 200 204 236 290 351 398 393 341 307 324 369 392 439 406 305 370 362 479 521 460 386 574 626 688 728 775 718 636 569 471 378 377 488 553 591 618 679 698 727 634 480 524 600 624 631 599 540 479 372 277 298 370 458 566 643 680 642 631 563 501 436 360
0 30 0 64 177 175 188 199 162 47 132 190 226 258 257 286 296 302 388 385 415 387 300 329 399 512 545 465 393 332 312 268 226 188 195 193 194 205 220 274 256 266 323 340 433 397 285 157 195 170 140 145 204 236 262 138 77 68 110 165 306 327 322
0 0 0 0 0 0 0 0 0 0 0 0 0 0 80 129 139 174 164 175 198 210 234 261 276 279 271 246 236 242 231 212 167 128 120 93 82 116 164 211 230 187 160 131 174 145 175 143 139 129 99 48 57 47 30 22 14 20 6 28 100 112 74
0 0 0 0 0 0 0 0 0 0 0 0 0 0 0 0 0 0 14 14 15 15 18 20 95 127 144 153 151 146 143 140 142 69 68 78 88 100 78 122 120 58 47 124 139 126 3 3 77 67 64 58 35 3 0 0 0 0 0 0 13 15 7
0 0 0 0 0 0 0 0 0 0 0 0 0 0 0 0 0 0 0 0 0 0 0 0 0 0 0 0 0 0 0 0 44 0 0 1 4 6 24 49 67 68 81 88 87 102 102 13 1 0 0 0 0 0 0 0 0 0 1 10 0 0 0
0 0 0 0 0 0 0 0 0 0 0 0 0 0 0 0 0 0 0 0 0 0 0 0 0 0 0 0 0 0 0 0 0 0 0 0 0 0 0 0 0 4 4 1 0 3 2 75 2 0 0 0 0 0 0 0 2 0 0 0 0 0 0
0 0 0 0 0 0 0 0 0 0 0 0 0 0 0 0 0 0 0 0 0 0 0 0 0 0 0 0 0 0 0 0 0 0 0 0 0 0 0 0 0 0 0 0 0 0 7 12 31 13 12 9 5 2 0 1 1 0 0 0 0 0 0
0 0 0 0 0 0 0 0 0 0 0 0 0 0 0 0 0 0 0 0 0 0 0 0 0 0 0 0 0 0 0 0 0 0 0 0 0 0 0 0 0 0 0 0 0 0 8 37 49 36 20 7 3 2 7 1 0 0 0 0 0 0 0
0 0 0 0 0 0 0 0 0 0 0 0 0 0 0 0 0 0 0 0 0 0 0 0 0 0 0 0 0 0 0 0 0 0 0 0 0 0 0 0 0 0 0 0 0 0 0 0 13 8 5 0 0 0 0 0 0 0 0 0 0 0 0
Wind_Speed
nan nan nan nan nan 11 10 11 11 11 11 12 11 9 10 11 11 11 11 10 9 9 10 10 10 11 10 10 9 9 8 7 7 6 5 5 4 2 2 2 2 2 2 3 2 3 3 2 3 3 3 4 4 5 5 4 5 5 4 4 6 6 7
nan nan nan nan nan 12 11 12 13 14 13 13 12 11 11 11 11 11 11 10 9 9 9 10 11 11 10 11 11 10 9 8 8 8 8 7 6 5 3 3 3 3 3 3 2 1 2 2 1 2 3 3 5 5 4 4 4 5 4 3 4 4 5
nan nan nan nan nan 13 12 14 14 14 14 13 13 13 12 11 10 9 10 11 10 11 12 11 11 11 11 12 12 11 11 10 10 9 8 7 6 5 5 4 3 3 3 3 2 2 2 2 0 1 2 3 4 5 4 4 4 4 4 3 2 2 2
nan nan nan nan nan 14 14 14 14 16 16 14 12 12 13 12 13 12 11 10 9 11 11 11 12 13 13 12 12 13 12 12 11 10 9 9 8 8 8 6 5 5 4 2 2 3 3 3 1 1 2 2 4 4 4 4 4 3 3 2 2 2 2
nan nan nan nan nan nan 16 16 15 16 16 16 15 14 14 14 14 15 14 12 11 9 9 10 13 13 14 13 15 15 13 13 13 12 11 10 10 11 10 9 8 6 3 4 4 4 3 3 2 1 2 2 2 3 3 3 2 2 1 0 1 1 2
nan nan nan nan nan nan 14 14 15 16 17 17 17 16 16 16 17 15 14 14 13 13 12 11 10 11 12 13 14 14 15 14 14 13 12 12 13 12 10 9 9 7 6 4 5 4 4 3 2 2 2 2 2 2 2 1 1 1 1 1 1 0 0
nan nan nan nan nan nan 14 15 16 17 19 18 19 19 18 17 15 15 16 15 15 13 13 11 11 10 10 12 12 13 12 14 14 13 13 13 12 11 9 9 9 8 6 8 5 5 4 3 3 3 3 3 2 2 2 1 1 3 3 3 2 1 1
nan nan nan nan nan nan 15 16 17 18 21 22 21 20 18 17 17 17 16 16 16 15 15 13 13 13 12 12 12 10 11 12 13 13 13 12 11 9 9 9 9 9 10 7 6 6 5 4 5 5 4 4 3 3 3 2 2 4 5 5 4 3 5
nan 26 nan nan nan nan nan 17 18 18 19 19 17 17 17 17 16 16 16 17 17 16 15 14 13 14 14 13 13 11 11 12 13 13 12 11 11 10 10 10 9 11 10 8 8 7 6 6 6 5 5 5 5 5 5 4 4 5 6 5 5 5 5
29 29 29 nan nan nan 19 19 21 22 20 19 19 17 15 15 16 17 17 17 17 15 15 16 16 16 15 15 13 13 13 12 13 13 13 12 13 11 11 11 11 11 10 8 9 8 8 7 7 7 7 7 6 6 6 6 6 7 7 6 6 6 5
nan 32 32 29 26 23 21 21 20 19 18 17 18 17 16 15 16 16 16 17 17 16 16 16 16 15 15 15 14 13 13 13 14 14 13 13 14 12 12 11 12 12 10 10 9 8 9 9 9 8 9 8 7 7 7 6 7 7 7 7 7 6 5
37 36 34 30 28 26 21 19 20 20 18 18 17 17 16 15 15 15 16 15 16 17 18 17 18 16 16 16 15 14 13 13 14 14 14 13 13 13 12 12 12 12 11 11 9 9 9 10 10 10 9 8 8 8 7 8 8 8 7 7 8 7 6
39 39 38 33 28 26 26 25 21 19 18 17 17 17 17 15 15 16 16 16 17 18 18 18 18 17 17 17 15 15 14 14 14 15 15 14 13 13 13 12 12 12 11 11 10 10 10 10 11 11 10 9 9 9 9 9 10 9 9 9 9 8 8
40 40 39 36 33 29 24 23 24 23 20 19 18 17 17 17 16 15 16 16 18 18 19 20 19 19 19 18 17 16 15 15 15 15 15 15 14 12 12 12 12 12 11 12 11 11 11 11 11 11 12 11 11 11 12 12 12 12 11 11 11 11 10
37 39 37 35 32 29 25 23 24 24 23 21 21 19 18 19 19 19 19 20 20 20 19 20 20 20 20 19 18 18 19 19 18 17 17 16 15 13 12 12 12 12 12 11 12 12 12 12 12 13 13 13 13 13 14 14 14 15 15 14 13 14 12
33 32 30 30 30 29 29 29 29 27 27 26 23 21 20 20 20 19 18 20 23 22 22 23 21 20 20 19 19 21 22 22 21 20 19 17 16 16 15 14 14 13 12 11 12 12 12 12 13 13 14 14 14 15 16 16 17 15 12 15 17 17 16
24 26 28 32 33 34 34 34 34 34 33 31 29 26 23 22 22 22 22 23 24 24 24 23 21 21 20 19 21 24 25 25 24 24 21 19 19 19 19 18 17 16 14 14 14 14 14 15 14 15 15 15 15 15 16 17 18 14 14 14 14 17 18
19 21 24 28 32 35 37 37 37 35 34 33 33 31 29 26 25 24 23 24 24 25 26 25 24 23 23 25 29 27 26 26 26 25 23 23 22 22 22 22 21 19 18 18 17 17 18 17 16 17 17 17 17 16 17 18 17 15 15 15 15 16 19
15 16 18 21 24 30 34 38 41 40 37 36 34 34 32 31 30 27 28 31 33 34 32 32 32 31 30 29 27 27 27 27 25 24 24 24 24 25 25 24 23 22 22 20 20 22 21 20 20 19 19 19 18 18 19 19 19 19 20 20 19 18 18
14 15 16 20 23 24 27 36 43 44 44 43 40 39 36 33 33 34 34 34 33 33 30 29 30 32 31 30 29 29 30 30 27 24 23 24 25 26 25 25 24 24 25 25 25 24 23 23 22 22 22 21 20 20 21 22 29 29 27 26 25 23 22
17 16 16 17 18 21 25 30 37 43 44 42 42 41 40 39 38 38 38 35 34 33 32 30 30 29 28 29 30 29 30 29 27 24 23 23 25 26 26 26 25 26 26 26 25 24 24 24 24 25 25 24 24 24 25 30 33 32 30 28 26 25 23
20 19 18 16 15 18 19 23 33 43 46 46 42 39 38 38 38 40 40 39 38 36 35 35 35 34 33 31 27 25 31 30 29 27 25 26 29 30 30 28 27 26 28 28 29 30 30 32 31 30 31 31 30 29 32 33 35 34 33 31 29 27 26
23 22 19 17 17 16 14 16 28 41 44 44 43 41 41 39 40 41 41 41 40 40 40 39 35 32 31 33 31 30 31 32 33 31 30 31 32 31 32 33 32 29 29 30 29 29 29 31 32 33 35 35 35 35 35 34 35 35 34 33 33 30 28
22 20 18 16 15 16 15 13 17 26 30 33 37 38 39 39 41 42 43 43 43 45 45 42 35 31 32 32 32 33 36 36 35 30 28 28 28 28 30 31 33 32 31 27 28 30 31 31 33 34 34 36 37 37 37 37 38 39 37 37 36 33 31
20 18 17 17 15 16 16 16 16 18 21 23 26 27 30 34 38 42 44 45 46 46 47 45 40 37 35 33 34 35 39 39 37 37 36 30 28 28 29 32 34 33 33 33 29 29 32 33 33 35 36 38 40 42 42 41 40 41 39 39 38 36 33
21 20 20 18 18 17 18 18 21 22 21 21 20 22 25 27 30 35 40 42 43 46 46 44 45 44 39 36 36 38 41 41 41 41 39 33 31 35 39 38 37 37 35 34 32 29 28 32 33 36 39 42 43 42 41 42 41 42 44 44 43 39 36
24 22 22 21 20 19 20 20 21 21 20 19 20 22 25 26 27 28 31 37 41 42 41 41 45 48 47 43 41 43 44 43 42 42 37 30 33 39 40 36 37 38 36 38 36 32 30 34 35 38 42 46 46 47 45 43 43 45 49 50 49 48 43
27 26 23 22 24 23 21 22 24 24 23 20 20 20 21 23 24 21 23 27 31 32 32 36 42 48 52 50 47 47 49 46 43 41 38 33 34 38 39 38 39 40 40 42 40 36 33 36 40 41 44 43 46 48 49 48 49 46 51 53 54 53 52
30 29 27 25 26 26 26 25 27 28 27 24 23 22 21 24 24 22 21 22 19 18 21 26 33 41 48 51 49 48 48 45 40 36 34 33 33 36 37 37 38 39 42 45 43 38 36 36 37 40 40 39 39 44 47 48 51 54 52 54 56 55 55
27 29 29 27 25 25 28 30 29 29 27 25 26 26 25 25 26 25 24 22 17 18 19 21 25 29 35 39 40 40 39 35 30 28 31 33 32 31 30 27 27 29 33 37 40 39 37 35 35 35 35 33 33 33 36 41 46 51 53 51 54 54 55
nan nan nan nan 28 27 29 30 32 nan 31 28 28 27 27 26 28 28 28 22 22 23 24 25 25 26 26 27 28 28 27 27 26 27 29 30 30 29 27 24 22 23 26 30 30 32 34 33 32 33 32 32 33 31 29 31 nan nan 45 51 52 52 51
nan nan nan nan nan nan nan nan nan nan nan nan nan nan nan 27 28 30 25 25 27 26 27 28 29 28 26 25 25 27 28 29 28 29 29 nan nan 30 29 30 31 31 29 29 29 29 31 33 34 35 nan nan nan nan nan nan nan nan nan nan nan 44 nan
nan nan nan nan nan nan nan nan nan nan nan nan nan nan nan nan nan nan nan nan nan nan nan nan nan 32 32 32 31 31 31 32 30 nan nan nan nan nan nan 35 35 nan nan 31 33 33 nan nan nan nan nan nan nan nan nan nan nan nan nan nan nan nan nan
nan nan nan nan nan nan nan nan nan nan nan nan nan nan nan nan nan nan nan nan nan nan nan nan nan nan nan nan nan nan nan nan nan nan nan nan nan nan nan nan nan nan nan nan nan 34 35 nan nan nan nan nan nan nan nan nan nan nan nan nan nan nan nan
nan nan nan nan nan nan nan nan nan nan nan nan nan nan nan nan nan nan nan nan nan nan nan nan nan nan nan nan nan nan nan nan nan nan nan nan nan nan nan nan nan nan nan nan nan nan nan nan nan nan nan nan nan nan nan nan nan nan nan nan nan nan nan
nan nan nan nan nan nan nan nan nan nan nan nan nan nan nan nan nan nan nan nan nan nan nan nan nan nan nan nan nan nan nan nan nan nan nan nan nan nan nan nan nan nan nan nan nan nan nan nan nan nan nan nan nan nan nan nan nan nan nan nan nan nan nan
nan nan nan nan nan nan nan nan nan nan nan nan nan nan nan nan nan nan nan nan nan nan nan nan nan nan nan nan nan nan nan nan nan nan nan nan nan nan nan nan nan nan nan nan nan nan nan nan nan nan nan nan nan nan nan nan nan nan nan nan nan nan nan
nan nan nan nan nan nan nan nan nan nan nan nan nan nan nan nan nan nan nan nan nan nan nan nan nan nan nan nan nan nan nan nan nan nan nan nan nan nan nan nan nan nan nan nan nan nan nan nan nan nan nan nan nan nan nan nan nan nan nan nan nan nan nan
Wind_Direction
nan nan nan nan nan 205 207 205 195 186 194 195 187 181 170 163 166 176 181 183 179 186 181 182 183 188 188 185 183 188 188 191 195 195 191 189 199 227 247 257 306 346 338 352 37 41 47 43 65 92 117 115 110 109 110 125 133 149 177 178 183 188 191
nan nan nan nan nan 203 204 213 205 192 193 195 190 190 182 173 174 172 176 186 189 197 200 194 196 195 196 195 196 198 201 201 207 206 209 208 207 216 235 270 300 328 336 350 353 7 338 36 35 100 125 139 117 115 118 123 122 130 140 166 174 172 184
nan nan nan nan nan 204 207 211 207 200 196 196 196 196 190 182 179 175 180 183 188 197 205 206 204 204 204 207 209 205 206 211 214 220 230 229 232 240 246 258 274 287 317 325 317 315 299 313 53 152 162 146 136 131 131 129 124 123 122 132 156 153 151
nan nan nan nan nan 205 212 214 214 205 196 196 200 201 198 189 186 186 186 184 187 197 206 206 211 212 212 215 215 217 218 218 220 225 229 238 246 246 252 249 249 251 262 292 290 289 281 288 286 174 165 168 144 143 147 130 135 130 124 139 139 137 145
nan nan nan nan nan nan 208 209 211 212 204 196 197 201 202 199 195 194 193 189 190 190 195 211 211 215 216 220 217 220 227 233 230 228 229 235 241 249 252 254 255 260 266 260 271 282 283 272 251 226 186 188 157 158 142 143 130 132 129 136 118 151 137
nan nan nan nan nan nan 212 214 214 215 211 203 201 203 202 205 201 199 199 200 194 190 192 201 210 218 224 223 223 225 229 233 236 235 235 237 246 249 250 253 259 260 258 268 264 274 274 255 243 237 222 206 195 179 181 177 159 238 309 290 338 22 187
nan nan nan nan nan nan 215 218 216 214 211 206 204 203 205 207 207 204 205 203 204 204 201 202 205 213 216 224 226 229 232 234 236 237 236 239 244 246 247 247 251 254 253 253 258 258 251 242 226 229 228 221 216 210 220 236 238 269 279 290 311 291 310
nan nan nan nan nan nan 212 219 219 216 214 212 210 207 208 207 207 209 210 209 211 208 204 206 209 211 214 220 226 231 231 234 235 235 237 241 242 240 240 243 246 254 255 261 256 255 244 230 216 217 226 226 230 234 231 244 264 268 278 293 302 301 286
nan 201 nan nan nan nan nan 218 222 221 221 222 221 215 214 215 214 213 212 214 215 217 210 211 213 215 219 222 227 231 233 238 239 243 247 246 244 244 245 247 252 257 263 261 256 252 241 229 220 219 224 222 225 240 242 256 268 272 286 295 305 310 302
201 200 200 nan nan nan 210 216 221 220 217 218 221 221 221 221 221 219 217 216 219 219 219 218 219 222 225 226 226 229 234 238 241 249 250 251 248 253 252 255 257 260 262 261 253 254 245 239 231 229 227 227 228 239 246 259 265 273 282 295 301 307 312
nan 200 202 204 205 208 211 218 226 226 221 219 223 226 226 227 229 229 226 222 220 217 221 223 225 231 232 234 233 232 232 233 239 244 248 249 249 253 254 256 258 260 264 260 255 253 250 247 244 240 238 232 237 243 254 262 271 279 279 282 288 298 300
204 202 200 202 204 208 213 217 224 227 224 218 220 226 228 230 233 235 234 231 226 224 224 224 226 230 235 238 240 238 237 235 235 239 242 243 244 248 250 253 257 261 259 262 261 258 256 256 253 252 253 245 243 247 252 258 264 274 277 281 284 286 289
208 205 202 201 204 205 208 211 218 226 227 224 222 222 223 228 233 237 238 236 231 227 227 228 229 230 234 238 241 241 242 241 240 239 238 237 236 237 241 245 251 257 260 262 264 264 261 260 260 255 256 256 251 250 256 259 261 265 269 270 272 280 283
209 209 204 205 207 209 209 210 214 221 227 229 225 223 221 223 230 239 244 244 239 235 231 228 230 231 232 236 238 240 243 242 243 246 247 244 242 241 241 241 244 247 251 256 262 263 264 265 265 260 259 257 258 256 256 261 261 264 267 266 267 267 268
206 206 202 206 210 212 216 218 217 219 226 231 232 230 227 225 225 227 230 236 240 240 238 236 236 235 236 237 237 239 241 240 240 242 247 251 253 250 246 246 247 248 248 250 252 254 259 263 265 266 263 260 260 259 258 260 262 262 265 266 266 264 265
201 198 199 204 210 216 219 218 219 221 225 229 235 233 231 229 228 231 237 242 243 243 240 240 238 240 241 242 241 239 241 242 241 242 245 248 251 251 249 246 245 248 251 252 253 254 256 258 261 261 263 262 261 261 259 259 259 264 280 273 265 267 263
195 196 199 204 209 213 220 226 226 225 227 232 237 237 235 232 230 230 232 239 246 246 244 243 241 240 240 240 240 241 240 240 240 240 241 241 242 244 246 245 243 242 242 244 248 251 252 253 257 257 257 259 259 261 260 258 259 271 274 276 279 268 266
199 204 209 212 215 218 222 227 230 231 230 231 236 241 242 238 236 236 234 236 240 242 244 242 237 238 236 234 235 239 242 244 245 243 240 238 237 238 240 242 242 241 240 240 242 244 247 250 252 253 256 256 257 257 257 257 261 270 271 274 278 274 267
212 216 222 223 224 223 223 227 229 230 230 228 230 235 239 243 242 240 236 234 230 233 234 234 231 229 231 238 243 246 247 248 249 250 250 247 244 242 242 244 244 243 243 242 242 244 247 249 251 252 255 258 260 260 258 259 261 265 263 261 263 266 264
228 229 226 223 222 224 228 227 227 222 219 218 219 223 227 232 240 241 242 242 241 241 239 241 241 242 240 237 235 238 246 249 248 249 253 256 256 254 251 249 248 248 247 246 244 246 246 248 252 254 257 261 262 261 261 261 260 262 259 256 254 255 257
237 239 238 237 237 238 240 236 227 221 219 220 220 218 219 225 232 237 240 242 244 245 245 240 241 243 246 247 246 242 234 236 247 248 247 252 255 256 255 253 251 251 253 256 258 258 257 256 253 252 252 252 256 258 260 255 256 259 261 261 262 262 263
243 244 243 242 248 251 253 237 224 221 220 218 220 223 222 227 231 237 238 238 241 242 243 242 237 229 224 235 243 247 250 241 225 224 236 246 245 244 242 243 249 254 252 254 256 257 261 259 260 259 256 252 252 257 258 253 251 253 254 255 256 261 264
241 244 249 249 245 249 249 227 208 208 213 217 219 222 226 230 235 240 243 244 244 244 241 240 238 240 238 238 238 239 241 245 244 232 234 243 248 250 250 247 238 238 250 258 260 262 261 261 260 261 262 260 258 259 257 255 252 253 252 253 253 258 263
241 242 248 253 253 251 249 231 205 202 206 219 224 226 231 235 241 247 248 248 247 247 245 242 237 234 237 239 244 244 242 242 246 247 245 242 249 249 249 251 252 251 242 241 259 264 261 261 261 258 259 262 262 262 262 258 252 249 249 251 251 254 259
248 247 245 248 249 249 247 246 236 220 212 214 222 225 235 241 242 242 244 247 246 245 246 243 242 240 236 233 239 240 243 246 248 247 249 247 244 248 251 251 251 252 251 247 238 248 260 261 262 262 260 261 262 262 261 259 254 248 248 249 250 253 255
250 244 240 239 243 246 248 246 244 236 230 229 231 236 245 250 249 246 243 240 239 240 242 240 237 240 238 234 236 239 240 242 247 248 247 247 250 251 249 250 252 254 254 250 246 243 247 257 263 268 266 261 258 256 257 258 256 252 251 249 248 247 252
258 253 246 240 239 241 244 245 245 240 235 236 234 234 240 249 253 248 243 242 237 233 232 231 231 233 235 235 236 236 235 238 244 249 248 250 256 258 261 260 260 260 259 255 252 250 249 251 255 261 262 259 256 254 253 254 254 251 252 252 251 248 250
256 256 253 247 244 244 245 247 246 242 241 240 241 242 246 251 257 259 254 245 235 228 228 228 226 227 229 232 234 232 230 236 242 244 246 249 255 259 258 256 256 256 255 253 253 254 252 253 260 264 263 258 255 254 254 255 256 256 253 254 253 251 251
254 255 252 247 244 244 249 251 251 250 250 250 248 246 248 254 256 258 258 253 240 231 234 235 231 229 230 233 236 234 233 235 239 241 243 248 249 249 250 251 253 255 256 255 255 254 251 253 260 263 264 264 262 260 259 256 255 255 257 255 254 253 252
252 252 253 253 253 249 249 252 253 254 253 254 255 255 255 258 262 261 258 251 245 242 240 238 234 232 232 233 235 235 234 236 238 237 236 237 241 244 243 244 249 255 257 258 255 252 252 252 254 258 264 270 272 272 266 258 256 255 256 257 256 255 257
nan nan nan nan 258 257 254 254 255 nan 256 256 257 259 259 258 262 260 258 255 257 254 254 252 247 244 243 242 240 239 237 236 233 230 231 234 236 238 242 246 251 256 262 268 262 256 256 256 257 262 269 275 277 278 273 261 nan nan 255 256 256 254 256
nan nan nan nan nan nan nan nan nan nan nan nan nan nan nan 263 265 265 265 265 265 263 260 257 255 253 252 252 251 251 251 249 245 241 239 nan nan 253 256 261 266 269 270 272 271 267 265 265 265 267 nan nan nan nan nan nan nan nan nan nan nan 256 nan
nan nan nan nan nan nan nan nan nan nan nan nan nan nan nan nan nan nan nan nan nan nan nan nan nan 264 263 264 265 264 264 263 262 nan nan nan nan nan nan 264 266 nan nan 270 271 272 nan nan nan nan nan nan nan nan nan nan nan nan nan nan nan nan nan
nan nan nan nan nan nan nan nan nan nan nan nan nan nan nan nan nan nan nan nan nan nan nan nan nan nan nan nan nan nan nan nan nan nan nan nan nan nan nan nan nan nan nan nan nan 269 270 nan nan nan nan nan nan nan nan nan nan nan nan nan nan nan nan
nan nan nan nan nan nan nan nan nan nan nan nan nan nan nan nan nan nan nan nan nan nan nan nan nan nan nan nan nan nan nan nan nan nan nan nan nan nan nan nan nan nan nan nan nan nan nan nan nan nan nan nan nan nan nan nan nan nan nan nan nan nan nan
nan nan nan nan nan nan nan nan nan nan nan nan nan nan nan nan nan nan nan nan nan nan nan nan nan nan nan nan nan nan nan nan nan nan nan nan nan nan nan nan nan nan nan nan nan nan nan nan nan nan nan nan nan nan nan nan nan nan nan nan nan nan nan
nan nan nan nan nan nan nan nan nan nan nan nan nan nan nan nan nan nan nan nan nan nan nan nan nan nan nan nan nan nan nan nan nan nan nan nan nan nan nan nan nan nan nan nan nan nan nan nan nan nan nan nan nan nan nan nan nan nan nan nan nan nan nan
nan nan nan nan nan nan nan nan nan nan nan nan nan nan nan nan nan nan nan nan nan nan nan nan nan nan nan nan nan nan nan nan nan nan nan nan nan nan nan nan nan nan nan nan nan nan nan nan nan nan nan nan nan nan nan nan nan nan nan nan nan nan nan